This is the latest recevied weather packets stored in our database for station/object KC9GSD. If no packets are shown the sender has not sent any weather packets the latest 10 day(s).
| Time | Temp. | Humidity | Pressure | Rain* | Wind** | Luminosity | Snow |
|---|---|---|---|---|---|---|---|
| 1777922197 | 24.44° C | 46% | 1014.5 hPa | 0 mm | - | 772 W/m² | - |
| 1777921892 | 25° C | 45% | 1014.6 hPa | 0 mm | - | 487 W/m² | - |
| 1777921589 | 24.44° C | 53% | 1014.8 hPa | 0 mm | - | 895 W/m² | - |
| 1777921285 | 23.33° C | 44% | 1015 hPa | 0 mm | - | 397 W/m² | - |
| 1777920982 | 23.89° C | 43% | 1015 hPa | 0 mm | - | 298 W/m² | - |
| 1777920678 | 24.44° C | 45% | 1015.1 hPa | 0 mm | - | 527 W/m² | - |
| 1777920374 | 25° C | 44% | 1015 hPa | 0 mm | - | 808 W/m² | - |
| 1777920069 | 24.44° C | 43% | 1015 hPa | 0 mm | - | 878 W/m² | - |
| 1777919767 | 24.44° C | 45% | 1015.3 hPa | 0 mm | - | 868 W/m² | - |
| 1777919465 | 25° C | 47% | 1015.2 hPa | 0 mm | - | 781 W/m² | - |
| 1777919162 | 25° C | 42% | 1015.2 hPa | 0 mm | - | 864 W/m² | - |
| 1777918859 | 25° C | 45% | 1015.5 hPa | 0 mm | - | 807 W/m² | - |
| 1777918556 | 24.44° C | 46% | 1015.4 hPa | 0 mm | - | 839 W/m² | - |
| 1777918254 | 25° C | 43% | 1015.5 hPa | 0 mm | - | 836 W/m² | - |
| 1777917953 | 25° C | 52% | 1015.5 hPa | 0 mm | - | 836 W/m² | - |
| 1777917651 | 24.44° C | 49% | 1015.5 hPa | 0 mm | - | 833 W/m² | - |
| 1777917348 | 24.44° C | 43% | 1015.5 hPa | 0 mm | - | 832 W/m² | - |
| 1777917045 | 23.89° C | 49% | 1015.7 hPa | 0 mm | - | 833 W/m² | - |
| 1777916743 | 24.44° C | 43% | 1015.7 hPa | 0 mm | - | 830 W/m² | - |
| 1777916439 | 23.89° C | 46% | 1015.9 hPa | 0 mm | - | 830 W/m² | - |
| 1777916136 | 23.33° C | 46% | 1015.9 hPa | 0 mm | - | 834 W/m² | - |
| 1777915834 | 23.89° C | 49% | 1015.9 hPa | 0 mm | - | 831 W/m² | - |
| 1777915530 | 23.33° C | 54% | 1016 hPa | 0 mm | - | 841 W/m² | - |
| 1777915226 | 23.33° C | 45% | 1016.1 hPa | 0 mm | - | 819 W/m² | - |
| 1777914924 | 23.33° C | 50% | 1016.1 hPa | 0 mm | - | 553 W/m² | - |
* Rain latest hour (hover to see other rain measurements)
** Current wind speed in m/s (hover to see current wind gust speed)